Location: *
(48.8780°N, 19.2358°E)
Time: 14:37:54
(UTC+00:00)

Resurs 01 Rocket - Pass Details

Date: 18 October 2019
Orbit: 634 x 645 km, 98.0° (Epoch: 14 November)

Event Time Altitude Azimuth Distance (km) Brightness Sun altitude
Exits shadow 19:32:43 15° 334° (NNW) 1,727 4.3 -36.5°
Drops below altitude 10° 19:33:34 10° 337° (NNW) 2,053 4.8 -36.6°
Sets 19:35:50 0° 342° (NNW) 2,966 5.7 -36.9°
